Location: Unspecified
(0.0000°N, 0.0000°E)
Time: 04:25:20
(UTC+00:00)

Courier 1B - Visible Passes

Search period start: 29 March 2015 00:00
Search period end: 08 April 2015 00:00
Orbit: 963 x 1209 km, 28.3° (Epoch: 28 March)

Date Brightness Start Highest point End Pass type
(mag) Time Alt. Az. Time Alt. Az. Time Alt. Az.
29 Mar 8.3 04:02:00 42° S 04:02:00 42° S 04:07:36 10° SE visible
30 Mar 9.6 03:12:00 19° SE 03:12:00 19° SE 03:13:53 10° SE visible
30 Mar 9.1 04:58:56 16° SW 05:01:37 20° SSW 05:06:32 10° SSE visible
31 Mar 9.0 04:08:53 24° S 04:08:53 24° S 04:13:14 10° SSE visible
01 Apr 9.9 03:18:49 14° SSE 03:18:49 14° SSE 03:19:49 10° SE visible
01 Apr 9.6 05:06:45 10° SW 05:08:49 11° SSW 05:10:38 10° S visible
02 Apr 9.5 04:15:35 14° S 04:15:35 14° S 04:18:10 10° S visible
07 Apr 9.9 20:52:02 10° NNW 20:52:50 13° NNW 20:52:50 13° NNW visible
